Location: Unspecified
(0.0000°N, 0.0000°E)
Time: 23:46:14
(UTC+00:00)

Courier 1B Rocket - Visible Passes

Search period start: 25 January 2021 00:00
Search period end: 04 February 2021 00:00
Orbit: 920 x 1202 km, 28.2° (Epoch: 25 January)

Date Brightness Start Highest point End Pass type
(mag) Time Alt. Az. Time Alt. Az. Time Alt. Az.
25 Jan 6.5 04:43:44 18° NNW 04:43:44 18° NNW 04:47:14 10° NNE visible
27 Jan 7.1 04:36:29 10° N 04:36:29 10° N 04:36:34 10° N visible
30 Jan 7.3 20:39:43 10° S 20:41:41 12° SSE 20:41:41 12° SSE visible
31 Jan 7.5 21:29:34 10° SSW 21:30:39 14° SSW 21:30:39 14° SSW visible
01 Feb 7.0 20:29:06 10° SSW 20:33:17 18° SSE 20:33:17 18° SSE visible
02 Feb 7.2 19:28:59 10° S 19:32:06 13° SSE 19:35:09 10° SE visible
02 Feb 7.2 21:20:04 10° SW 21:22:18 20° SSW 21:22:18 20° SSW visible
03 Feb 6.4 20:19:16 10° SSW 20:25:01 27° SSE 20:25:01 27° SSE visible
